Wind_Speed
11 10 9 11 6 11 9 10 7 11 13 15 16 19 18 17 18 18 19 18 18 16 17 23 23 22 23 20 17 15 15 16
10 9 12 11 13 3 7 7 6 12 11 14 15 15 16 15 18 17 17 20 21 18 13 26 26 27 25 23 21 19 16 16
11 12 12 13 10 10 13 13 9 9 10 10 13 13 13 13 13 17 17 18 19 22 18 19 29 27 26 27 26 22 20 19
12 16 16 17 14 14 8 13 13 12 12 9 12 12 12 15 14 13 15 20 20 17 20 17 26 27 27 28 27 27 26 23
14 15 14 14 14 12 11 13 12 9 15 11 11 13 14 15 15 16 13 18 21 21 19 23 23 31 31 29 29 29 28 26
13 12 15 17 15 13 10 11 12 11 15 17 14 15 16 15 16 13 14 16 22 23 20 22 28 27 36 32 31 31 32 30
22 28 25 21 20 18 16 14 14 12 16 20 18 16 16 13 13 11 11 13 16 20 23 23 26 25 33 38 35 32 32 33
22 26 22 23 23 21 21 17 17 18 19 22 20 18 14 12 12 12 10 12 14 16 18 21 23 18 28 40 42 37 34 33
21 26 23 21 20 22 22 20 20 20 20 23 20 17 15 14 12 13 13 13 13 16 16 15 20 26 30 34 45 41 38 38
21 29 24 13 20 21 22 22 20 20 23 21 19 18 14 13 13 15 17 16 16 13 16 16 13 17 28 26 31 41 41 39
25 25 20 21 17 20 21 18 20 20 23 21 19 19 17 16 16 19 22 21 19 19 15 17 17 13 12 28 31 38 41 44
29 26 23 16 19 15 18 15 20 20 21 21 20 19 19 19 21 20 21 21 23 25 22 19 20 18 13 14 23 30 35 41
30 29 24 25 19 18 17 21 19 20 19 22 22 21 20 23 23 21 20 20 21 21 25 25 24 22 21 19 14 22 28 36
35 35 32 26 21 18 20 20 19 19 18 19 21 23 26 26 24 23 22 22 20 21 21 23 26 27 24 24 22 19 21 28
43 32 34 26 25 22 20 16 16 19 21 21 24 27 27 25 25 23 21 20 18 16 15 17 20 25 27 26 27 26 19 18
41 38 38 28 28 26 24 24 24 27 25 24 24 22 23 24 25 23 20 21 19 17 18 20 21 21 24 26 29 30 28 25
47 42 39 38 32 30 28 27 25 26 29 30 28 25 22 23 21 20 21 23 23 23 22 22 23 25 26 27 29 31 33 30
45 41 34 30 36 31 30 27 25 24 26 29 28 27 24 22 20 21 23 26 28 29 29 29 29 31 31 31 32 31 33 35
33 30 31 32 32 34 30 28 24 25 23 27 26 25 22 21 22 24 27 30 34 37 39 37 37 37 39 36 35 34 33 35
Wind_Direction
214 203 207 265 236 232 234 257 263 262 256 261 252 255 258 253 249 247 246 247 245 247 240 232 220 215 202 207 211 202 198 200
222 231 225 227 235 282 302 234 267 281 276 250 257 257 256 254 250 253 253 246 237 242 254 234 225 216 209 206 210 212 205 213
234 241 241 239 239 225 212 233 243 278 286 260 260 263 252 251 247 242 253 256 241 233 233 234 228 222 214 207 208 211 215 214
233 242 254 237 217 226 250 279 271 267 285 263 254 254 252 252 257 255 253 247 244 244 236 233 230 229 223 216 210 211 214 217
255 248 238 227 227 228 230 236 254 269 276 276 280 277 268 262 261 260 263 243 242 242 244 239 231 231 233 227 217 218 219 218
227 232 227 255 254 242 255 253 263 270 255 283 284 282 280 270 269 268 254 254 245 241 236 246 236 234 226 230 227 222 221 220
232 237 243 250 255 254 251 251 253 248 272 274 287 286 281 278 261 258 254 253 242 240 236 244 237 237 230 222 229 232 232 228
246 251 249 254 249 252 256 255 256 257 266 266 278 285 288 272 264 262 256 262 257 249 236 235 226 234 239 227 225 233 237 238
246 263 269 260 254 250 255 257 254 259 263 271 279 280 281 260 252 262 265 252 248 245 241 244 236 221 227 228 234 233 239 236
242 254 260 256 254 251 250 251 255 258 263 266 271 273 263 257 252 260 265 265 265 258 234 227 221 230 234 230 240 237 236 232
240 252 259 257 250 247 255 251 252 257 265 263 261 263 255 257 252 261 263 262 262 266 253 230 229 226 249 240 243 243 238 236
239 242 244 240 231 240 251 251 252 256 260 256 254 257 252 256 261 264 268 269 260 259 264 256 246 236 246 255 239 244 244 238
234 238 241 231 230 245 253 256 256 259 254 249 250 250 263 256 259 262 266 268 270 264 263 260 254 254 242 248 249 242 245 236
228 241 239 222 234 250 253 252 257 263 252 247 249 252 255 259 258 260 265 268 264 262 265 262 261 261 256 246 247 243 236 235
218 244 254 237 236 241 247 250 256 258 251 247 247 250 257 265 266 263 259 254 249 252 261 267 265 265 265 259 254 254 253 252
221 225 239 232 227 237 247 253 264 264 263 257 256 259 262 265 261 260 253 238 241 253 264 272 272 271 267 262 260 255 256 253
223 224 237 236 229 237 245 256 258 259 260 256 257 257 263 262 259 254 246 245 253 258 263 272 274 271 271 267 256 255 255 252
218 229 226 233 220 233 239 247 252 260 264 253 256 262 264 259 257 255 254 255 265 273 278 277 274 270 268 267 261 250 251 251
212 215 225 234 231 236 240 240 248 256 269 249 252 262 260 258 259 264 269 272 272 274 278 277 272 269 266 268 262 250 244 246
Height
5861 5862 5866 5868 5868 5870 5873 5873 5873 5875 5871 5869 5868 5868 5869 5871 5872 5874 5875 5877 5879 5881 5883 5884 5885 5888 5890 5892 5895 5896 5898 5900
5858 5860 5862 5864 5867 5870 5869 5872 5873 5872 5868 5866 5865 5865 5865 5866 5867 5868 5870 5871 5874 5876 5878 5879 5882 5884 5887 5889 5892 5895 5897 5899
5857 5858 5863 5860 5862 5863 5866 5866 5868 5869 5869 5863 5862 5861 5861 5861 5862 5863 5864 5864 5867 5870 5873 5874 5877 5880 5882 5885 5887 5891 5894 5896
5857 5854 5855 5856 5858 5861 5864 5866 5862 5860 5861 5858 5858 5858 5858 5858 5858 5859 5859 5858 5860 5864 5867 5870 5874 5877 5879 5882 5884 5885 5888 5892
5851 5851 5851 5852 5853 5854 5855 5856 5857 5858 5860 5854 5854 5853 5854 5854 5854 5854 5855 5855 5855 5858 5861 5864 5869 5872 5875 5878 5879 5882 5884 5888
5851 5850 5848 5847 5848 5849 5851 5854 5855 5853 5853 5849 5850 5849 5848 5849 5850 5851 5851 5851 5851 5854 5857 5858 5861 5866 5869 5873 5875 5878 5881 5883
5843 5841 5842 5842 5842 5843 5846 5848 5849 5851 5847 5846 5845 5845 5844 5845 5846 5846 5846 5846 5846 5847 5850 5852 5854 5857 5860 5865 5869 5872 5876 5879
5835 5834 5835 5835 5837 5838 5839 5842 5842 5842 5843 5840 5840 5839 5840 5840 5841 5841 5842 5842 5842 5842 5844 5846 5848 5851 5854 5859 5863 5867 5870 5873
5830 5829 5827 5830 5831 5832 5833 5834 5836 5837 5836 5833 5835 5835 5835 5835 5836 5836 5837 5838 5838 5838 5839 5840 5842 5844 5848 5851 5855 5859 5863 5867
5823 5820 5821 5825 5824 5825 5827 5828 5829 5829 5828 5829 5829 5830 5830 5830 5831 5832 5832 5832 5833 5834 5835 5836 5835 5837 5840 5842 5846 5849 5853 5858
5815 5816 5819 5817 5819 5820 5820 5823 5822 5823 5822 5823 5824 5825 5825 5826 5827 5827 5827 5828 5828 5828 5829 5831 5831 5830 5832 5834 5837 5840 5844 5849
5804 5807 5812 5816 5813 5814 5814 5816 5815 5816 5816 5817 5818 5819 5819 5821 5821 5821 5821 5822 5822 5822 5823 5824 5825 5825 5825 5828 5828 5831 5833 5837
5797 5799 5804 5804 5808 5808 5810 5810 5809 5809 5810 5811 5812 5813 5813 5814 5815 5816 5816 5816 5816 5816 5817 5817 5818 5819 5820 5821 5821 5823 5826 5828
5790 5791 5795 5798 5801 5803 5803 5803 5803 5803 5803 5805 5806 5806 5806 5807 5809 5810 5810 5810 5810 5811 5811 5812 5812 5814 5814 5814 5816 5817 5819 5821
5776 5784 5785 5790 5794 5796 5796 5797 5797 5798 5798 5798 5799 5799 5800 5802 5803 5804 5804 5804 5805 5806 5806 5806 5807 5807 5808 5808 5809 5811 5812 5812
5767 5773 5776 5780 5785 5788 5790 5790 5791 5791 5793 5792 5792 5794 5795 5795 5796 5797 5798 5799 5800 5801 5801 5801 5801 5801 5801 5801 5802 5805 5806 5807
5756 5762 5768 5773 5777 5781 5782 5784 5783 5784 5784 5785 5786 5788 5789 5789 5789 5791 5792 5793 5794 5794 5795 5795 5794 5794 5793 5794 5795 5796 5798 5799
5750 5755 5759 5762 5766 5772 5774 5776 5777 5777 5777 5778 5779 5779 5782 5783 5783 5784 5785 5786 5785 5785 5786 5786 5786 5786 5786 5786 5787 5788 5790 5792
5739 5745 5750 5755 5760 5763 5767 5770 5771 5771 5771 5771 5772 5773 5774 5776 5777 5777 5777 5777 5777 5776 5775 5775 5776 5776 5775 5776 5777 5779 5783 5785